KB5SJ Weather Reports


time (UTC)temp
C
wind
direction
speed
KPH
gust
KPH
rain 1hr
cm
rain 24hr
cm
rain mn
cm
humidity
%
barometer
mb
20260505082515 21 0.0 1.6 0.00 0.00 0.00 94 1008.2
20260505081515 21 0.0 3.2 0.00 0.00 0.00 94 1008.4
20260505080515 20 0.0 0.0 0.00 0.00 0.00 94 1008.4
20260505075515 20 0.0 0.0 0.00 0.00 0.00 93 1008.3
20260505074516 20 0.0 0.0 0.00 0.00 0.00 93 1008.4
20260505073515 20 0.0 0.0 0.00 0.00 0.00 93 1008.6
20260505072515 20 0.0 0.0 0.00 0.00 0.00 92 1008.8
20260505071515 20 0.0 0.0 0.00 0.00 0.00 92 1008.8
20260505070515 20 0.0 0.0 0.00 0.00 0.00 92 1008.9
20260505065535 20 0.0 0.0 0.00 0.00 0.00 92 1009.0
20260505064515 21 0.0 0.0 0.00 0.00 0.00 91 1009.0
20260505063518 21 0.0 0.0 0.00 0.00 0.00 91 1009.2
20260505062517 21 0.0 0.0 0.00 0.00 0.00 90 1009.4
20260505061537 21 0.0 0.0 0.00 0.00 0.00 90 1009.3
20260505060517 21 0.0 0.0 0.00 0.00 0.00 89 1009.4
20260505055517 21 203 1.6 4.8 0.00 0.00 0.00 89 1009.5
20260505054517 21 0.0 3.2 0.00 0.00 0.00 88 1009.6
20260505053517 22 0.0 8.0 0.00 0.00 0.00 88 1009.5
20260505052537 22 0.0 1.6 0.00 0.00 0.00 87 1009.8
20260505051517 22 180 1.6 6.4 0.00 0.00 0.00 87 1009.8
20260505050517 22 203 1.6 3.2 0.00 0.00 0.00 86 1009.9
20260505041517 22 180 1.6 6.4 0.00 0.00 0.00 85 1009.7
20260505040517 22 203 3.2 12.9 0.00 0.00 0.00 86 1010.1
20260505035537 22 180 1.6 6.4 0.00 0.00 0.00 85 1010.0
20260505034517 22 203 3.2 6.4 0.00 0.00 0.00 85 1009.9
20260505033517 22 203 1.6 6.4 0.00 0.00 0.00 85 1010.0
20260505032517 22 0.0 3.2 0.00 0.00 0.00 85 1010.3
20260505031516 22 203 1.6 6.4 0.00 0.00 0.00 85 1010.2
20260505030517 22 203 1.6 8.0 0.00 0.00 0.00 84 1010.1
20260505025516 22 203 1.6 6.4 0.00 0.00 0.00 84 1009.9
20260505024516 22 203 3.2 11.3 0.00 0.00 0.00 84 1009.9
20260505023537 22 203 3.2 8.0 0.00 0.00 0.00 84 1009.9
20260505022517 22 180 3.2 9.7 0.00 0.00 0.00 84 1010.1
20260505021517 22 203 3.2 9.7 0.00 0.00 0.00 84 1010.0
20260505020516 22 203 1.6 4.8 0.00 0.00 0.00 84 1009.9
20260505015516 22 180 3.2 12.9 0.00 0.00 0.00 83 1009.6
20260505014516 22 203 3.2 9.7 0.00 0.00 0.00 83 1009.4
20260505013516 22 225 3.2 6.4 0.00 0.00 0.00 82 1009.6
20260505012516 23 203 1.6 8.0 0.00 0.00 0.00 81 1009.6
20260505011517 23 203 3.2 9.7 0.00 0.00 0.00 80 1009.3
20260505010517 23 203 3.2 12.9 0.00 0.00 0.00 80 1009.5
20260505005517 23 180 3.2 17.7 0.00 0.00 0.00 80 1009.6
20260505004517 23 203 3.2 9.7 0.00 0.00 0.00 79 1009.3
20260505003517 23 203 4.8 11.3 0.00 0.00 0.00 79 1009.4
20260505002516 23 180 4.8 14.5 0.00 0.00 0.00 78 1009.3
20260505001516 24 225 3.2 9.7 0.00 0.00 0.00 78 1009.5
20260505000517 24 225 3.2 9.7 0.00 0.00 0.00 77 1009.7
20260504235516 24 203 3.2 12.9 0.00 0.00 0.00 77 1009.7
20260504234516 25 203 4.8 17.7 0.00 0.00 0.00 76 1009.5
20260504233516 25 180 6.4 20.9 0.00 0.00 0.00 75 1009.6
20260504232516 25 180 9.7 24.1 0.00 0.00 0.00 74 1009.8
20260504231536 25 225 4.8 11.3 0.00 0.00 0.00 74 1009.8
20260504230516 25 203 4.8 12.9 0.00 0.00 0.00 75 1010.0
20260504225516 25 203 3.2 11.3 0.00 0.00 0.00 74 1010.0
20260504224516 25 180 6.4 16.1 0.00 0.00 0.00 73 1010.1
20260504223536 25 203 4.8 16.1 0.00 0.00 0.00 73 1010.1
20260504222536 25 203 6.4 17.7 0.00 0.00 0.00 73 1010.1
20260504221516 26 180 3.2 11.3 0.00 0.00 0.00 72 1010.3
20260504220516 26 180 3.2 19.3 0.00 0.00 0.00 72 1010.3
20260504215516 26 180 6.4 24.1 0.00 0.00 0.00 70 1010.2
20260504214516 27 158 4.8 14.5 0.00 0.00 0.00 70 1010.5
20260504213516 26 180 4.8 16.1 0.00 0.00 0.00 71 1010.6
20260504212517 26 180 6.4 17.7 0.00 0.00 0.00 70 1010.6
20260504211516 26 180 6.4 14.5 0.00 0.00 0.00 71 1010.9
20260504210516 26 203 4.8 17.7 0.00 0.00 0.00 69 1010.9
20260504205516 27 203 3.2 11.3 0.00 0.00 0.00 68 1011.2
20260504204516 27 203 4.8 12.9 0.00 0.00 0.00 66 1011.3
20260504203516 26 270 3.2 8.0 0.00 0.00 0.00 66 1011.5
20260504202516 27 203 4.8 12.9 0.00 0.00 0.00 64 1011.7
20260504201516 26 248 3.2 8.0 0.00 0.00 0.00 66 1011.6
20260504200516 26 203 4.8 12.9 0.00 0.00 0.00 65 1012.0
20260504195516 26 203 3.2 9.7 0.00 0.00 0.00 66 1012.1
20260504194516 26 203 6.4 12.9 0.00 0.00 0.00 65 1012.2
20260504193516 26 203 3.2 9.7 0.00 0.00 0.00 66 1012.5
20260504192516 26 225 3.2 9.7 0.00 0.00 0.00 65 1012.4
20260504191556 26 203 4.8 14.5 0.00 0.00 0.00 64 1012.7
20260504190556 26 180 4.8 16.1 0.00 0.00 0.00 64 1012.9
20260504185516 26 248 1.6 4.8 0.00 0.00 0.00 64 1012.9
20260504184516 26 203 6.4 22.5 0.00 0.00 0.00 65 1013.0
20260504183516 26 180 4.8 12.9 0.00 0.00 0.00 64 1013.2
20260504182516 26 180 6.4 14.5 0.00 0.00 0.00 64 1013.2
20260504181516 26 248 3.2 9.7 0.00 0.00 0.00 65 1013.4
20260504180516 26 203 4.8 14.5 0.00 0.00 0.00 66 1013.3
20260504175516 26 203 6.4 16.1 0.00 0.00 0.00 66 1013.6
20260504174516 26 180 4.8 12.9 0.00 0.00 0.00 65 1013.8
20260504173516 25 203 3.2 9.7 0.00 0.00 0.00 66 1013.8
20260504172516 25 225 4.8 11.3 0.00 0.00 0.00 68 1013.9
20260504171516 25 180 6.4 16.1 0.00 0.00 0.00 66 1014.1
20260504170516 25 203 3.2 8.0 0.00 0.00 0.00 68 1014.2
20260504150516 22 248 1.6 11.3 0.00 0.00 0.00 75 1015.1
20260504140516 19 248 1.6 4.8 0.00 0.00 0.00 87 1015.1
20260504130515 14 0.0 4.8 0.00 0.00 0.00 97 1015.1
20260504110516 12 0.0 0.0 0.00 0.00 0.00 95 1014.8
20260504100515 13 0.0 0.0 0.00 0.00 0.00 94 1014.9